Torreon, Mexico

5:05 AM CST on December 06, 2016 (GMT -0600)
Torreon International

Weather History for MMTC - October, 2012

Change the Weather History Date:

Thursday, October 11, 2012

  Actual Average Record
Temperature  
Mean Temperature 82 °F -  
Max Temperature 97 °F 79 °F 97 °F (2012)
Min Temperature 67 °F 57 °F 51 °F (2000)
Cooling Degree Days 17    
Growing Degree Days 32 (Base 50)    
Moisture  
Dew Point 54 °F    
Average Humidity 37    
Maximum Humidity 59    
Minimum Humidity 21    
Precipitation  
Precipitation 0.00 in - - ()
Sea Level Pressure  
Sea Level Pressure 29.94 in    
Wind  
Wind Speed 4 mph ()    
Max Wind Speed 14 mph    
Max Gust Speed -    
Visibility 12.7 miles    
Events      
Averages and records for this station are not official NWS values.
T = Trace of Precipitation, MM = Missing Value Source: Averaged Metar Reports

Daily Weather History Graph

Daily Weather History Graph

Search for Another Location

Airport or City:

Trip Planner

Search our weather history database for the weather conditions in past years. The results will help you decide how hot, cold, wet, or windy it might be!

Date:

Astronomy

Oct. 11, 2012 Rise Set
Actual Time 7:50 AM CDT 7:29 PM CDT
Civil Twilight 7:27 AM CDT 7:52 PM CDT
Nautical Twilight 7:00 AM CDT 8:19 PM CDT
Astronomical Twilight 6:34 AM CDT 8:45 PM CDT
Moon 3:54 AM CDT (10/11) 4:47 PM CDT (10/11)
Length of Visible Light 12h 25m
Length of Day
11h 38m
Waning Crescent, 18% of the Moon is Illuminated
Oct 11
Waning Crescent
Oct 15
New
Oct 21
First Quarter
Oct 29
Full
Nov 6
Last Quarter

Hourly Weather History & Observations

Time (CDT) Temp. Heat Index Dew Point Humidity Pressure Visibility Wind Dir Wind Speed Gust Speed Precip Events Conditions
12:55 AM 78 °F - 59 °F 42% 29.76 in 6 mi ENE 2.2 mph - -  
3:50 AM 75 °F - 57 °F 43% 29.79 in 6 mi SSE 4.5 mph - -  
5:00 AM 69.8 °F - 46.4 °F 43% 30.08 in 10.0 mi Calm Calm - N/A   Clear
5:43 AM 69.8 °F - 46.4 °F 43% 30.09 in 10.0 mi Calm Calm - N/A   Clear
6:45 AM 68.0 °F - 48.2 °F 49% 29.82 in 10.0 mi Calm Calm - N/A   Clear
6:50 AM 69 °F - 58 °F 59% 29.85 in 6 mi SE 2.2 mph - -  
7:45 AM 68.0 °F - 50.0 °F 52% 30.13 in 10.0 mi Calm Calm - N/A   Clear
8:45 AM 73.4 °F - 51.8 °F 47% 30.15 in 12.0 mi Calm Calm - N/A   Clear
9:43 AM 77.0 °F - 51.8 °F 41% 29.88 in 15.0 mi ESE 5.8 mph - N/A   Clear
9:50 AM 76 °F - 60 °F 47% 29.94 in 19 mi SSE 4.5 mph - -   Scattered Clouds
10:45 AM 78.8 °F - 51.8 °F 39% 30.17 in 15.0 mi East 13.8 mph - N/A   Clear
11:45 AM 82.4 °F - 51.8 °F 35% 30.16 in 15.0 mi East 10.4 mph - N/A   Clear
12:45 PM 84.2 °F - 50.0 °F 30% 30.14 in 15.0 mi ESE 4.6 mph - N/A   Clear
12:50 PM 90 °F - 65 °F 33% 29.89 in 19 mi East 2.2 mph - -  
1:43 PM 87.8 °F - 50.0 °F 27% 30.11 in 15.0 mi Calm Calm - N/A   Clear
2:48 PM 89.6 °F 87.7 °F 55.4 °F 31% 30.06 in 15.0 mi East 8.1 mph - N/A   Partly Cloudy
3:44 PM 91.4 °F 89.1 °F 53.6 °F 28% 29.71 in 15.0 mi East 12.7 mph - N/A   Partly Cloudy
3:46 PM 95 °F - 61 °F 23% 29.76 in 19 mi SSE 6.7 mph - -   Scattered Clouds
4:40 PM 93.2 °F 90.8 °F 53.6 °F 26% 30.01 in 15.0 mi East 9.2 mph - N/A   Partly Cloudy
5:47 PM 93.2 °F 90.8 °F 53.6 °F 26% 29.99 in 15.0 mi NNE 12.7 mph - N/A   Scattered Clouds
6:46 PM 92 °F - 57 °F 21% 29.68 in 19 mi ENE 6.7 mph - -   Scattered Clouds
6:48 PM 91.4 °F - 51.8 °F 26% 29.71 in 15.0 mi NE 9.2 mph - N/A   Scattered Clouds
7:40 PM 87.8 °F - 51.8 °F 29% 30.00 in 10.0 mi NE 6.9 mph - N/A   Partly Cloudy
8:50 PM 84.2 °F - 50.0 °F 30% 30.01 in 10.0 mi NNE 6.9 mph - N/A   Clear
9:49 PM 82.4 °F - 51.8 °F 35% 29.73 in 10.0 mi Calm Calm - N/A   Clear
9:54 PM 83 °F - 65 °F 46% 29.71 in 6 mi SE 2.2 mph - -  
10:42 PM 80.6 °F 80.3 °F 53.6 °F 39% 30.06 in 10.0 mi East 6.9 mph - N/A   Clear